owner,sensor,date,latitude,longitude,air_temperature,qcFlag 
COMPS,ioos:station:USF.COMPS:EGK:1,2011-11-01T00:00:00Z,27.6010,-82.7510,22.0,1111122 
COMPS,ioos:station:USF.COMPS:EGK:1,2011-11-01T00:06:00Z,27.6010,-82.7510,21.98,1111122 
COMPS,ioos:station:USF.COMPS:EGK:1,2011-11-01T00:12:00Z,27.6010,-82.7510,22.17,1111122 
COMPS,ioos:station:USF.COMPS:EGK:1,2011-11-01T00:18:00Z,27.6010,-82.7510,22.19,1111122 
COMPS,ioos:station:USF.COMPS:EGK:1,2011-11-01T00:24:00Z,27.6010,-82.7510,22.17,1111122 
COMPS,ioos:station:USF.COMPS:EGK:1,2011-11-01T00:30:00Z,27.6010,-82.7510,22.04,1111122 
COMPS,ioos:station:USF.COMPS:EGK:1,2011-11-01T00:36:00Z,27.6010,-82.7510,21.99,1111122 
COMPS,ioos:station:USF.COMPS:EGK:1,2011-11-01T00:42:00Z,27.6010,-82.7510,22.01,1111122 
COMPS,ioos:station:USF.COMPS:EGK:1,2011-11-01T00:48:00Z,27.6010,-82.7510,22.04,1111122 
COMPS,ioos:station:USF.COMPS:EGK:1,2011-11-01T00:54:00Z,27.6010,-82.7510,22.09,1111122 
COMPS,ioos:station:USF.COMPS:EGK:1,2011-11-01T02:00:00Z,27.6010,-82.7510,21.8,1111122 
COMPS,ioos:station:USF.COMPS:EGK:1,2011-11-01T02:06:00Z,27.6010,-82.7510,21.87,1111122 
COMPS,ioos:station:USF.COMPS:EGK:1,2011-11-01T02:12:00Z,27.6010,-82.7510,21.89,1111122 
COMPS,ioos:station:USF.COMPS:EGK:1,2011-11-01T02:18:00Z,27.6010,-82.7510,21.74,1111122 
COMPS,ioos:station:USF.COMPS:EGK:1,2011-11-01T02:24:00Z,27.6010,-82.7510,21.76,1111122 
COMPS,ioos:station:USF.COMPS:EGK:1,2011-11-01T02:30:00Z,27.6010,-82.7510,21.74,1111122 
COMPS,ioos:station:USF.COMPS:EGK:1,2011-11-01T02:36:00Z,27.6010,-82.7510,21.84,1111122 
COMPS,ioos:station:USF.COMPS:EGK:1,2011-11-01T02:42:00Z,27.6010,-82.7510,21.71,1111122 
COMPS,ioos:station:USF.COMPS:EGK:1,2011-11-01T02:48:00Z,27.6010,-82.7510,21.68,1111122 
COMPS,ioos:station:USF.COMPS:EGK:1,2011-11-01T02:54:00Z,27.6010,-82.7510,21.67,1111122 
COMPS,ioos:station:USF.COMPS:EGK:1,2011-11-01T03:00:00Z,27.6010,-82.7510,21.7,1111122 
COMPS,ioos:station:USF.COMPS:EGK:1,2011-11-01T03:06:00Z,27.6010,-82.7510,21.65,1111122 
COMPS,ioos:station:USF.COMPS:EGK:1,2011-11-01T03:12:00Z,27.6010,-82.7510,21.59,1111122 
COMPS,ioos:station:USF.COMPS:EGK:1,2011-11-01T03:18:00Z,27.6010,-82.7510,21.6,1111122 
COMPS,ioos:station:USF.COMPS:EGK:1,2011-11-01T03:24:00Z,27.6010,-82.7510,21.68,1111122 
COMPS,ioos:station:USF.COMPS:EGK:1,2011-11-01T03:30:00Z,27.6010,-82.7510,21.68,1111122 
COMPS,ioos:station:USF.COMPS:EGK:1,2011-11-01T03:36:00Z,27.6010,-82.7510,21.6,1111122 
COMPS,ioos:station:USF.COMPS:EGK:1,2011-11-01T03:42:00Z,27.6010,-82.7510,21.58,1111122 
COMPS,ioos:station:USF.COMPS:EGK:1,2011-11-01T03:48:00Z,27.6010,-82.7510,21.61,1111122 
COMPS,ioos:station:USF.COMPS:EGK:1,2011-11-01T03:54:00Z,27.6010,-82.7510,21.55,1111122 
COMPS,ioos:station:USF.COMPS:EGK:1,2011-11-01T04:00:00Z,27.6010,-82.7510,21.6,1111122 
COMPS,ioos:station:USF.COMPS:EGK:1,2011-11-01T06:00:00Z,27.6010,-82.7510,20.3,1111122 
COMPS,ioos:station:USF.COMPS:EGK:1,2011-11-01T06:06:00Z,27.6010,-82.7510,20.23,1111122 
COMPS,ioos:station:USF.COMPS:EGK:1,2011-11-01T06:12:00Z,27.6010,-82.7510,20.12,1111122 
COMPS,ioos:station:USF.COMPS:EGK:1,2011-11-01T06:18:00Z,27.6010,-82.7510,20.07,1111122 
COMPS,ioos:station:USF.COMPS:EGK:1,2011-11-01T06:24:00Z,27.6010,-82.7510,20.06,1111122 
COMPS,ioos:station:USF.COMPS:EGK:1,2011-11-01T06:30:00Z,27.6010,-82.7510,20.04,1111122 
COMPS,ioos:station:USF.COMPS:EGK:1,2011-11-01T06:36:00Z,27.6010,-82.7510,19.96,1111122 
COMPS,ioos:station:USF.COMPS:EGK:1,2011-11-01T06:42:00Z,27.6010,-82.7510,19.96,1111122 
COMPS,ioos:station:USF.COMPS:EGK:1,2011-11-01T06:48:00Z,27.6010,-82.7510,19.98,1111122 
COMPS,ioos:station:USF.COMPS:EGK:1,2011-11-01T06:54:00Z,27.6010,-82.7510,20.04,1111122 
COMPS,ioos:station:USF.COMPS:EGK:1,2011-11-01T08:00:00Z,27.6010,-82.7510,19.47,1111122 
COMPS,ioos:station:USF.COMPS:EGK:1,2011-11-01T08:06:00Z,27.6010,-82.7510,19.48,1111122 
COMPS,ioos:station:USF.COMPS:EGK:1,2011-11-01T08:12:00Z,27.6010,-82.7510,19.39,1111122 
COMPS,ioos:station:USF.COMPS:EGK:1,2011-11-01T08:18:00Z,27.6010,-82.7510,19.21,1111122 
COMPS,ioos:station:USF.COMPS:EGK:1,2011-11-01T08:24:00Z,27.6010,-82.7510,19.17,1111122 
COMPS,ioos:station:USF.COMPS:EGK:1,2011-11-01T08:30:00Z,27.6010,-82.7510,19.13,1111122 
COMPS,ioos:station:USF.COMPS:EGK:1,2011-11-01T08:36:00Z,27.6010,-82.7510,19.28,1111122 
COMPS,ioos:station:USF.COMPS:EGK:1,2011-11-01T08:42:00Z,27.6010,-82.7510,19.1,1111122 
COMPS,ioos:station:USF.COMPS:EGK:1,2011-11-01T08:48:00Z,27.6010,-82.7510,19.19,1111122 
COMPS,ioos:station:USF.COMPS:EGK:1,2011-11-01T08:54:00Z,27.6010,-82.7510,19.22,1111122 
COMPS,ioos:station:USF.COMPS:EGK:1,2011-11-01T09:00:00Z,27.6010,-82.7510,19.2,1111122 
COMPS,ioos:station:USF.COMPS:EGK:1,2011-11-01T09:06:00Z,27.6010,-82.7510,19.21,1111122 
COMPS,ioos:station:USF.COMPS:EGK:1,2011-11-01T09:12:00Z,27.6010,-82.7510,19.15,1111122 
COMPS,ioos:station:USF.COMPS:EGK:1,2011-11-01T09:18:00Z,27.6010,-82.7510,19.06,1111122 
COMPS,ioos:station:USF.COMPS:EGK:1,2011-11-01T09:24:00Z,27.6010,-82.7510,19.15,1111122 
COMPS,ioos:station:USF.COMPS:EGK:1,2011-11-01T09:30:00Z,27.6010,-82.7510,19.1,1111122 
COMPS,ioos:station:USF.COMPS:EGK:1,2011-11-01T09:36:00Z,27.6010,-82.7510,18.89,1111122 
COMPS,ioos:station:USF.COMPS:EGK:1,2011-11-01T09:42:00Z,27.6010,-82.7510,18.87,1111122 
COMPS,ioos:station:USF.COMPS:EGK:1,2011-11-01T09:48:00Z,27.6010,-82.7510,18.73,1111122 
COMPS,ioos:station:USF.COMPS:EGK:1,2011-11-01T09:54:00Z,27.6010,-82.7510,18.83,1111122 
COMPS,ioos:station:USF.COMPS:EGK:1,2011-11-01T10:00:00Z,27.6010,-82.7510,18.8,1111122 
COMPS,ioos:station:USF.COMPS:EGK:1,2011-11-01T11:00:00Z,27.6010,-82.7510,17.73,1111122 
COMPS,ioos:station:USF.COMPS:EGK:1,2011-11-01T11:06:00Z,27.6010,-82.7510,17.77,1111122 
COMPS,ioos:station:USF.COMPS:EGK:1,2011-11-01T11:12:00Z,27.6010,-82.7510,17.82,1111122 
COMPS,ioos:station:USF.COMPS:EGK:1,2011-11-01T11:18:00Z,27.6010,-82.7510,17.62,1111122 
COMPS,ioos:station:USF.COMPS:EGK:1,2011-11-01T11:24:00Z,27.6010,-82.7510,17.67,1111122 
COMPS,ioos:station:USF.COMPS:EGK:1,2011-11-01T11:30:00Z,27.6010,-82.7510,17.6,1111122 
COMPS,ioos:station:USF.COMPS:EGK:1,2011-11-01T11:36:00Z,27.6010,-82.7510,17.73,1111122 
COMPS,ioos:station:USF.COMPS:EGK:1,2011-11-01T11:42:00Z,27.6010,-82.7510,17.71,1111122 
COMPS,ioos:station:USF.COMPS:EGK:1,2011-11-01T11:48:00Z,27.6010,-82.7510,17.77,1111122 
COMPS,ioos:station:USF.COMPS:EGK:1,2011-11-01T11:54:00Z,27.6010,-82.7510,17.7,1111122 
COMPS,ioos:station:USF.COMPS:EGK:1,2011-11-01T12:00:00Z,27.6010,-82.7510,17.7,1111122 
COMPS,ioos:station:USF.COMPS:EGK:1,2011-11-01T12:06:00Z,27.6010,-82.7510,17.72,1111122 
COMPS,ioos:station:USF.COMPS:EGK:1,2011-11-01T12:12:00Z,27.6010,-82.7510,17.81,1111122 
COMPS,ioos:station:USF.COMPS:EGK:1,2011-11-01T12:18:00Z,27.6010,-82.7510,17.89,1111122 
COMPS,ioos:station:USF.COMPS:EGK:1,2011-11-01T12:24:00Z,27.6010,-82.7510,17.97,1111122 
COMPS,ioos:station:USF.COMPS:EGK:1,2011-11-01T12:30:00Z,27.6010,-82.7510,18.18,1111122 
COMPS,ioos:station:USF.COMPS:EGK:1,2011-11-01T12:36:00Z,27.6010,-82.7510,18.15,1111122 
COMPS,ioos:station:USF.COMPS:EGK:1,2011-11-01T12:42:00Z,27.6010,-82.7510,18.03,1111122 
COMPS,ioos:station:USF.COMPS:EGK:1,2011-11-01T12:48:00Z,27.6010,-82.7510,18.04,1111122 
COMPS,ioos:station:USF.COMPS:EGK:1,2011-11-01T12:54:00Z,27.6010,-82.7510,18.26,1111122 
COMPS,ioos:station:USF.COMPS:EGK:1,2011-11-01T14:00:00Z,27.6010,-82.7510,18.72,1111122 
COMPS,ioos:station:USF.COMPS:EGK:1,2011-11-01T14:06:00Z,27.6010,-82.7510,18.75,1111122 
COMPS,ioos:station:USF.COMPS:EGK:1,2011-11-01T14:12:00Z,27.6010,-82.7510,18.83,1111122 
COMPS,ioos:station:USF.COMPS:EGK:1,2011-11-01T14:18:00Z,27.6010,-82.7510,18.85,1111122 
COMPS,ioos:station:USF.COMPS:EGK:1,2011-11-01T14:24:00Z,27.6010,-82.7510,18.98,1111122 
COMPS,ioos:station:USF.COMPS:EGK:1,2011-11-01T14:30:00Z,27.6010,-82.7510,19.02,1111122 
COMPS,ioos:station:USF.COMPS:EGK:1,2011-11-01T14:36:00Z,27.6010,-82.7510,19.21,1111122 
COMPS,ioos:station:USF.COMPS:EGK:1,2011-11-01T14:42:00Z,27.6010,-82.7510,19.15,1111122 
COMPS,ioos:station:USF.COMPS:EGK:1,2011-11-01T14:48:00Z,27.6010,-82.7510,19.22,1111122 
COMPS,ioos:station:USF.COMPS:EGK:1,2011-11-01T14:54:00Z,27.6010,-82.7510,19.31,1111122 
COMPS,ioos:station:USF.COMPS:EGK:1,2011-11-01T15:00:00Z,27.6010,-82.7510,19.3,1111122 
COMPS,ioos:station:USF.COMPS:EGK:1,2011-11-01T15:06:00Z,27.6010,-82.7510,19.42,1111122 
COMPS,ioos:station:USF.COMPS:EGK:1,2011-11-01T15:12:00Z,27.6010,-82.7510,19.57,1111122 
COMPS,ioos:station:USF.COMPS:EGK:1,2011-11-01T15:18:00Z,27.6010,-82.7510,19.58,1111122 
COMPS,ioos:station:USF.COMPS:EGK:1,2011-11-01T15:24:00Z,27.6010,-82.7510,19.53,1111122 
COMPS,ioos:station:USF.COMPS:EGK:1,2011-11-01T15:30:00Z,27.6010,-82.7510,19.68,1111122 
COMPS,ioos:station:USF.COMPS:EGK:1,2011-11-01T15:36:00Z,27.6010,-82.7510,19.62,1111122 
COMPS,ioos:station:USF.COMPS:EGK:1,2011-11-01T15:42:00Z,27.6010,-82.7510,19.75,1111122 
COMPS,ioos:station:USF.COMPS:EGK:1,2011-11-01T15:48:00Z,27.6010,-82.7510,19.7,1111122 
COMPS,ioos:station:USF.COMPS:EGK:1,2011-11-01T15:54:00Z,27.6010,-82.7510,20.02,1111122 
COMPS,ioos:station:USF.COMPS:EGK:1,2011-11-01T16:00:00Z,27.6010,-82.7510,20.0,1111122 
COMPS,ioos:station:USF.COMPS:EGK:1,2011-11-01T16:06:00Z,27.6010,-82.7510,19.9,1111122 
COMPS,ioos:station:USF.COMPS:EGK:1,2011-11-01T16:12:00Z,27.6010,-82.7510,20.01,1111122 
COMPS,ioos:station:USF.COMPS:EGK:1,2011-11-01T16:18:00Z,27.6010,-82.7510,20.21,1111122 
COMPS,ioos:station:USF.COMPS:EGK:1,2011-11-01T16:24:00Z,27.6010,-82.7510,20.19,1111122 
COMPS,ioos:station:USF.COMPS:EGK:1,2011-11-01T16:30:00Z,27.6010,-82.7510,20.17,1111122 
COMPS,ioos:station:USF.COMPS:EGK:1,2011-11-01T16:36:00Z,27.6010,-82.7510,20.27,1111122 
COMPS,ioos:station:USF.COMPS:EGK:1,2011-11-01T16:42:00Z,27.6010,-82.7510,20.41,1111122 
COMPS,ioos:station:USF.COMPS:EGK:1,2011-11-01T16:48:00Z,27.6010,-82.7510,20.56,1111122 
COMPS,ioos:station:USF.COMPS:EGK:1,2011-11-01T16:54:00Z,27.6010,-82.7510,20.56,1111122 
COMPS,ioos:station:USF.COMPS:EGK:1,2011-11-01T17:00:00Z,27.6010,-82.7510,20.6,1111122 
COMPS,ioos:station:USF.COMPS:EGK:1,2011-11-01T17:06:00Z,27.6010,-82.7510,20.84,1111122 
COMPS,ioos:station:USF.COMPS:EGK:1,2011-11-01T17:12:00Z,27.6010,-82.7510,21.01,1111122 
COMPS,ioos:station:USF.COMPS:EGK:1,2011-11-01T17:18:00Z,27.6010,-82.7510,20.95,1111122 
COMPS,ioos:station:USF.COMPS:EGK:1,2011-11-01T17:24:00Z,27.6010,-82.7510,21.08,1111122 
COMPS,ioos:station:USF.COMPS:EGK:1,2011-11-01T17:30:00Z,27.6010,-82.7510,21.21,1111122 
COMPS,ioos:station:USF.COMPS:EGK:1,2011-11-01T17:36:00Z,27.6010,-82.7510,21.38,1111122 
COMPS,ioos:station:USF.COMPS:EGK:1,2011-11-01T17:42:00Z,27.6010,-82.7510,21.46,1111122 
COMPS,ioos:station:USF.COMPS:EGK:1,2011-11-01T17:48:00Z,27.6010,-82.7510,21.5,1111122 
COMPS,ioos:station:USF.COMPS:EGK:1,2011-11-01T17:54:00Z,27.6010,-82.7510,21.67,1111122 
COMPS,ioos:station:USF.COMPS:EGK:1,2011-11-01T18:00:00Z,27.6010,-82.7510,21.7,1111122 
COMPS,ioos:station:USF.COMPS:EGK:1,2011-11-01T18:06:00Z,27.6010,-82.7510,21.93,1111122 
COMPS,ioos:station:USF.COMPS:EGK:1,2011-11-01T18:12:00Z,27.6010,-82.7510,21.92,1111122 
COMPS,ioos:station:USF.COMPS:EGK:1,2011-11-01T18:18:00Z,27.6010,-82.7510,22.09,1111122 
COMPS,ioos:station:USF.COMPS:EGK:1,2011-11-01T18:24:00Z,27.6010,-82.7510,22.22,1111122 
COMPS,ioos:station:USF.COMPS:EGK:1,2011-11-01T18:30:00Z,27.6010,-82.7510,22.32,1111122 
COMPS,ioos:station:USF.COMPS:EGK:1,2011-11-01T18:36:00Z,27.6010,-82.7510,22.37,1111122 
COMPS,ioos:station:USF.COMPS:EGK:1,2011-11-01T18:42:00Z,27.6010,-82.7510,22.4,1111122 
COMPS,ioos:station:USF.COMPS:EGK:1,2011-11-01T18:48:00Z,27.6010,-82.7510,22.51,1111122 
COMPS,ioos:station:USF.COMPS:EGK:1,2011-11-01T18:54:00Z,27.6010,-82.7510,22.69,1111122 
COMPS,ioos:station:USF.COMPS:EGK:1,2011-11-01T20:00:00Z,27.6010,-82.7510,23.25,1111122 
COMPS,ioos:station:USF.COMPS:EGK:1,2011-11-01T20:06:00Z,27.6010,-82.7510,23.26,1111122 
COMPS,ioos:station:USF.COMPS:EGK:1,2011-11-01T20:12:00Z,27.6010,-82.7510,23.46,1111122 
COMPS,ioos:station:USF.COMPS:EGK:1,2011-11-01T20:18:00Z,27.6010,-82.7510,23.36,1111122 
COMPS,ioos:station:USF.COMPS:EGK:1,2011-11-01T20:24:00Z,27.6010,-82.7510,23.3,1111122 
COMPS,ioos:station:USF.COMPS:EGK:1,2011-11-01T20:30:00Z,27.6010,-82.7510,23.38,1111122 
COMPS,ioos:station:USF.COMPS:EGK:1,2011-11-01T20:36:00Z,27.6010,-82.7510,23.41,1111122 
COMPS,ioos:station:USF.COMPS:EGK:1,2011-11-01T20:42:00Z,27.6010,-82.7510,23.35,1111122 
COMPS,ioos:station:USF.COMPS:EGK:1,2011-11-01T20:48:00Z,27.6010,-82.7510,23.25,1111122 
COMPS,ioos:station:USF.COMPS:EGK:1,2011-11-01T20:54:00Z,27.6010,-82.7510,23.25,1111122 
COMPS,ioos:station:USF.COMPS:EGK:1,2011-11-01T21:00:00Z,27.6010,-82.7510,23.3,1111122 
COMPS,ioos:station:USF.COMPS:EGK:1,2011-11-01T21:06:00Z,27.6010,-82.7510,23.31,1111122 
COMPS,ioos:station:USF.COMPS:EGK:1,2011-11-01T21:12:00Z,27.6010,-82.7510,23.2,1111122 
COMPS,ioos:station:USF.COMPS:EGK:1,2011-11-01T21:18:00Z,27.6010,-82.7510,23.22,1111122 
COMPS,ioos:station:USF.COMPS:EGK:1,2011-11-01T21:24:00Z,27.6010,-82.7510,23.23,1111122 
COMPS,ioos:station:USF.COMPS:EGK:1,2011-11-01T21:30:00Z,27.6010,-82.7510,23.37,1111122 
COMPS,ioos:station:USF.COMPS:EGK:1,2011-11-01T21:36:00Z,27.6010,-82.7510,23.09,1111122 
COMPS,ioos:station:USF.COMPS:EGK:1,2011-11-01T21:42:00Z,27.6010,-82.7510,23.06,1111122 
COMPS,ioos:station:USF.COMPS:EGK:1,2011-11-01T21:48:00Z,27.6010,-82.7510,23.06,1111122 
COMPS,ioos:station:USF.COMPS:EGK:1,2011-11-01T21:54:00Z,27.6010,-82.7510,23.19,1111122 
COMPS,ioos:station:USF.COMPS:EGK:1,2011-11-01T22:00:00Z,27.6010,-82.7510,23.2,1111122 
COMPS,ioos:station:USF.COMPS:EGK:1,2011-11-01T23:00:00Z,27.6010,-82.7510,22.65,1111122 
COMPS,ioos:station:USF.COMPS:EGK:1,2011-11-01T23:06:00Z,27.6010,-82.7510,22.64,1111122 
COMPS,ioos:station:USF.COMPS:EGK:1,2011-11-01T23:12:00Z,27.6010,-82.7510,22.75,1111122 
COMPS,ioos:station:USF.COMPS:EGK:1,2011-11-01T23:18:00Z,27.6010,-82.7510,22.54,1111122 
COMPS,ioos:station:USF.COMPS:EGK:1,2011-11-01T23:24:00Z,27.6010,-82.7510,22.38,1111122 
COMPS,ioos:station:USF.COMPS:EGK:1,2011-11-01T23:30:00Z,27.6010,-82.7510,22.29,1111122 
COMPS,ioos:station:USF.COMPS:EGK:1,2011-11-01T23:36:00Z,27.6010,-82.7510,22.32,1111122 
COMPS,ioos:station:USF.COMPS:EGK:1,2011-11-01T23:42:00Z,27.6010,-82.7510,22.25,1111122 
COMPS,ioos:station:USF.COMPS:EGK:1,2011-11-01T23:48:00Z,27.6010,-82.7510,22.1,1111122 
COMPS,ioos:station:USF.COMPS:EGK:1,2011-11-01T23:54:00Z,27.6010,-82.7510,21.95,1111122 
COMPS,ioos:station:USF.COMPS:EGK:1,2011-11-02T00:00:00Z,27.6010,-82.7510,22.0,1111122 
COMPS,ioos:station:USF.COMPS:EGK:1,2011-11-02T02:00:00Z,27.6010,-82.7510,20.55,1111122 
COMPS,ioos:station:USF.COMPS:EGK:1,2011-11-02T02:06:00Z,27.6010,-82.7510,20.54,1111122 
COMPS,ioos:station:USF.COMPS:EGK:1,2011-11-02T02:12:00Z,27.6010,-82.7510,20.57,1111122 
COMPS,ioos:station:USF.COMPS:EGK:1,2011-11-02T02:18:00Z,27.6010,-82.7510,20.45,1111122 
COMPS,ioos:station:USF.COMPS:EGK:1,2011-11-02T02:24:00Z,27.6010,-82.7510,20.31,1111122 
COMPS,ioos:station:USF.COMPS:EGK:1,2011-11-02T02:30:00Z,27.6010,-82.7510,20.25,1111122 
COMPS,ioos:station:USF.COMPS:EGK:1,2011-11-02T02:36:00Z,27.6010,-82.7510,20.26,1111122 
COMPS,ioos:station:USF.COMPS:EGK:1,2011-11-02T02:42:00Z,27.6010,-82.7510,20.18,1111122 
COMPS,ioos:station:USF.COMPS:EGK:1,2011-11-02T02:48:00Z,27.6010,-82.7510,20.05,1111122 
COMPS,ioos:station:USF.COMPS:EGK:1,2011-11-02T02:54:00Z,27.6010,-82.7510,19.98,1111122 
COMPS,ioos:station:USF.COMPS:EGK:1,2011-11-02T03:00:00Z,27.6010,-82.7510,19.93,1111122 
COMPS,ioos:station:USF.COMPS:EGK:1,2011-11-02T03:06:00Z,27.6010,-82.7510,19.98,1111122 
COMPS,ioos:station:USF.COMPS:EGK:1,2011-11-02T03:12:00Z,27.6010,-82.7510,19.86,1111122 
COMPS,ioos:station:USF.COMPS:EGK:1,2011-11-02T03:18:00Z,27.6010,-82.7510,19.79,1111122 
COMPS,ioos:station:USF.COMPS:EGK:1,2011-11-02T03:24:00Z,27.6010,-82.7510,19.7,1111122 
COMPS,ioos:station:USF.COMPS:EGK:1,2011-11-02T03:30:00Z,27.6010,-82.7510,19.85,1111122 
COMPS,ioos:station:USF.COMPS:EGK:1,2011-11-02T03:36:00Z,27.6010,-82.7510,19.79,1111122 
COMPS,ioos:station:USF.COMPS:EGK:1,2011-11-02T03:42:00Z,27.6010,-82.7510,19.7,1111122 
COMPS,ioos:station:USF.COMPS:EGK:1,2011-11-02T03:48:00Z,27.6010,-82.7510,19.62,1111122 
COMPS,ioos:station:USF.COMPS:EGK:1,2011-11-02T03:54:00Z,27.6010,-82.7510,19.76,1111122 
COMPS,ioos:station:USF.COMPS:EGK:1,2011-11-02T04:00:00Z,27.6010,-82.7510,19.8,1111122 
COMPS,ioos:station:USF.COMPS:EGK:1,2011-11-02T06:00:00Z,27.6010,-82.7510,19.33,1111122 
COMPS,ioos:station:USF.COMPS:EGK:1,2011-11-02T06:06:00Z,27.6010,-82.7510,19.41,1111122 
COMPS,ioos:station:USF.COMPS:EGK:1,2011-11-02T06:12:00Z,27.6010,-82.7510,19.29,1111122 
COMPS,ioos:station:USF.COMPS:EGK:1,2011-11-02T06:18:00Z,27.6010,-82.7510,19.28,1111122 
COMPS,ioos:station:USF.COMPS:EGK:1,2011-11-02T06:24:00Z,27.6010,-82.7510,19.25,1111122 
COMPS,ioos:station:USF.COMPS:EGK:1,2011-11-02T06:30:00Z,27.6010,-82.7510,19.4,1111122 
COMPS,ioos:station:USF.COMPS:EGK:1,2011-11-02T06:36:00Z,27.6010,-82.7510,19.21,1111122 
COMPS,ioos:station:USF.COMPS:EGK:1,2011-11-02T06:42:00Z,27.6010,-82.7510,19.2,1111122 
COMPS,ioos:station:USF.COMPS:EGK:1,2011-11-02T06:48:00Z,27.6010,-82.7510,19.24,1111122 
COMPS,ioos:station:USF.COMPS:EGK:1,2011-11-02T06:54:00Z,27.6010,-82.7510,19.29,1111122 
COMPS,ioos:station:USF.COMPS:EGK:1,2011-11-02T07:00:00Z,27.6010,-82.7510,19.3,1111122 
COMPS,ioos:station:USF.COMPS:EGK:1,2011-11-02T08:00:00Z,27.6010,-82.7510,18.93,1111122 
COMPS,ioos:station:USF.COMPS:EGK:1,2011-11-02T08:06:00Z,27.6010,-82.7510,18.95,1111122 
COMPS,ioos:station:USF.COMPS:EGK:1,2011-11-02T08:12:00Z,27.6010,-82.7510,19.01,1111122 
COMPS,ioos:station:USF.COMPS:EGK:1,2011-11-02T08:18:00Z,27.6010,-82.7510,19.05,1111122 
COMPS,ioos:station:USF.COMPS:EGK:1,2011-11-02T08:24:00Z,27.6010,-82.7510,18.94,1111122 
COMPS,ioos:station:USF.COMPS:EGK:1,2011-11-02T08:30:00Z,27.6010,-82.7510,19.05,1111122 
COMPS,ioos:station:USF.COMPS:EGK:1,2011-11-02T08:36:00Z,27.6010,-82.7510,19.08,1111122 
COMPS,ioos:station:USF.COMPS:EGK:1,2011-11-02T08:42:00Z,27.6010,-82.7510,19.13,1111122 
COMPS,ioos:station:USF.COMPS:EGK:1,2011-11-02T08:48:00Z,27.6010,-82.7510,19.08,1111122 
COMPS,ioos:station:USF.COMPS:EGK:1,2011-11-02T08:54:00Z,27.6010,-82.7510,19.18,1111122 
COMPS,ioos:station:USF.COMPS:EGK:1,2011-11-02T09:00:00Z,27.6010,-82.7510,19.2,1111122 
COMPS,ioos:station:USF.COMPS:EGK:1,2011-11-02T09:06:00Z,27.6010,-82.7510,19.28,1111122 
COMPS,ioos:station:USF.COMPS:EGK:1,2011-11-02T09:12:00Z,27.6010,-82.7510,19.23,1111122 
COMPS,ioos:station:USF.COMPS:EGK:1,2011-11-02T09:18:00Z,27.6010,-82.7510,19.18,1111122 
COMPS,ioos:station:USF.COMPS:EGK:1,2011-11-02T09:24:00Z,27.6010,-82.7510,19.21,1111122 
COMPS,ioos:station:USF.COMPS:EGK:1,2011-11-02T09:30:00Z,27.6010,-82.7510,19.36,1111122 
COMPS,ioos:station:USF.COMPS:EGK:1,2011-11-02T09:36:00Z,27.6010,-82.7510,19.16,1111122 
COMPS,ioos:station:USF.COMPS:EGK:1,2011-11-02T09:42:00Z,27.6010,-82.7510,19.06,1111122 
COMPS,ioos:station:USF.COMPS:EGK:1,2011-11-02T09:48:00Z,27.6010,-82.7510,18.98,1111122 
COMPS,ioos:station:USF.COMPS:EGK:1,2011-11-02T09:54:00Z,27.6010,-82.7510,19.02,1111122 
COMPS,ioos:station:USF.COMPS:EGK:1,2011-11-02T10:00:00Z,27.6010,-82.7510,19.0,1111122 
COMPS,ioos:station:USF.COMPS:EGK:1,2011-11-02T11:00:00Z,27.6010,-82.7510,18.91,1111122 
COMPS,ioos:station:USF.COMPS:EGK:1,2011-11-02T11:06:00Z,27.6010,-82.7510,18.87,1111122 
COMPS,ioos:station:USF.COMPS:EGK:1,2011-11-02T11:12:00Z,27.6010,-82.7510,19.04,1111122 
COMPS,ioos:station:USF.COMPS:EGK:1,2011-11-02T11:18:00Z,27.6010,-82.7510,19.07,1111122 
COMPS,ioos:station:USF.COMPS:EGK:1,2011-11-02T11:24:00Z,27.6010,-82.7510,18.98,1111122 
COMPS,ioos:station:USF.COMPS:EGK:1,2011-11-02T11:30:00Z,27.6010,-82.7510,19.09,1111122 
COMPS,ioos:station:USF.COMPS:EGK:1,2011-11-02T11:36:00Z,27.6010,-82.7510,19.09,1111122 
COMPS,ioos:station:USF.COMPS:EGK:1,2011-11-02T11:42:00Z,27.6010,-82.7510,19.16,1111122 
COMPS,ioos:station:USF.COMPS:EGK:1,2011-11-02T11:48:00Z,27.6010,-82.7510,18.97,1111122 
COMPS,ioos:station:USF.COMPS:EGK:1,2011-11-02T11:54:00Z,27.6010,-82.7510,18.97,1111122 
COMPS,ioos:station:USF.COMPS:EGK:1,2011-11-02T12:00:00Z,27.6010,-82.7510,19.0,1111122 
COMPS,ioos:station:USF.COMPS:EGK:1,2011-11-02T12:06:00Z,27.6010,-82.7510,19.05,1111122 
COMPS,ioos:station:USF.COMPS:EGK:1,2011-11-02T12:12:00Z,27.6010,-82.7510,18.9,1111122 
COMPS,ioos:station:USF.COMPS:EGK:1,2011-11-02T12:18:00Z,27.6010,-82.7510,18.94,1111122 
COMPS,ioos:station:USF.COMPS:EGK:1,2011-11-02T12:24:00Z,27.6010,-82.7510,18.82,1111122 
COMPS,ioos:station:USF.COMPS:EGK:1,2011-11-02T12:30:00Z,27.6010,-82.7510,19.0,1111122 
COMPS,ioos:station:USF.COMPS:EGK:1,2011-11-02T12:36:00Z,27.6010,-82.7510,18.94,1111122 
COMPS,ioos:station:USF.COMPS:EGK:1,2011-11-02T12:42:00Z,27.6010,-82.7510,18.9,1111122 
COMPS,ioos:station:USF.COMPS:EGK:1,2011-11-02T12:48:00Z,27.6010,-82.7510,19.02,1111122 
COMPS,ioos:station:USF.COMPS:EGK:1,2011-11-02T12:54:00Z,27.6010,-82.7510,19.05,1111122 
COMPS,ioos:station:USF.COMPS:EGK:1,2011-11-02T13:00:00Z,27.6010,-82.7510,19.1,1111122 
COMPS,ioos:station:USF.COMPS:EGK:1,2011-11-02T14:00:00Z,27.6010,-82.7510,19.34,1111122 
COMPS,ioos:station:USF.COMPS:EGK:1,2011-11-02T14:06:00Z,27.6010,-82.7510,19.38,1111122 
COMPS,ioos:station:USF.COMPS:EGK:1,2011-11-02T14:12:00Z,27.6010,-82.7510,19.52,1111122 
COMPS,ioos:station:USF.COMPS:EGK:1,2011-11-02T14:18:00Z,27.6010,-82.7510,19.53,1111122 
COMPS,ioos:station:USF.COMPS:EGK:1,2011-11-02T14:24:00Z,27.6010,-82.7510,19.58,1111122 
COMPS,ioos:station:USF.COMPS:EGK:1,2011-11-02T14:30:00Z,27.6010,-82.7510,19.57,1111122 
COMPS,ioos:station:USF.COMPS:EGK:1,2011-11-02T14:36:00Z,27.6010,-82.7510,19.76,1111122 
COMPS,ioos:station:USF.COMPS:EGK:1,2011-11-02T14:42:00Z,27.6010,-82.7510,19.91,1111122 
COMPS,ioos:station:USF.COMPS:EGK:1,2011-11-02T14:48:00Z,27.6010,-82.7510,19.87,1111122 
COMPS,ioos:station:USF.COMPS:EGK:1,2011-11-02T14:54:00Z,27.6010,-82.7510,19.84,1111122 
COMPS,ioos:station:USF.COMPS:EGK:1,2011-11-02T15:00:00Z,27.6010,-82.7510,19.8,1111122 
COMPS,ioos:station:USF.COMPS:EGK:1,2011-11-02T15:06:00Z,27.6010,-82.7510,20.11,1111122 
COMPS,ioos:station:USF.COMPS:EGK:1,2011-11-02T15:12:00Z,27.6010,-82.7510,20.02,1111122 
COMPS,ioos:station:USF.COMPS:EGK:1,2011-11-02T15:18:00Z,27.6010,-82.7510,20.1,1111122 
COMPS,ioos:station:USF.COMPS:EGK:1,2011-11-02T15:24:00Z,27.6010,-82.7510,20.26,1111122 
COMPS,ioos:station:USF.COMPS:EGK:1,2011-11-02T15:30:00Z,27.6010,-82.7510,20.43,1111122 
COMPS,ioos:station:USF.COMPS:EGK:1,2011-11-02T15:36:00Z,27.6010,-82.7510,20.41,1111122 
COMPS,ioos:station:USF.COMPS:EGK:1,2011-11-02T15:42:00Z,27.6010,-82.7510,20.44,1111122 
COMPS,ioos:station:USF.COMPS:EGK:1,2011-11-02T15:48:00Z,27.6010,-82.7510,20.65,1111122 
COMPS,ioos:station:USF.COMPS:EGK:1,2011-11-02T15:54:00Z,27.6010,-82.7510,20.78,1111122 
COMPS,ioos:station:USF.COMPS:EGK:1,2011-11-02T16:00:00Z,27.6010,-82.7510,20.8,1111122 
COMPS,ioos:station:USF.COMPS:EGK:1,2011-11-02T17:00:00Z,27.6010,-82.7510,22.05,1111122 
COMPS,ioos:station:USF.COMPS:EGK:1,2011-11-02T17:06:00Z,27.6010,-82.7510,22.2,1111122 
COMPS,ioos:station:USF.COMPS:EGK:1,2011-11-02T17:12:00Z,27.6010,-82.7510,22.4,1111122 
COMPS,ioos:station:USF.COMPS:EGK:1,2011-11-02T17:18:00Z,27.6010,-82.7510,22.51,1111122 
COMPS,ioos:station:USF.COMPS:EGK:1,2011-11-02T17:24:00Z,27.6010,-82.7510,22.55,1111122 
COMPS,ioos:station:USF.COMPS:EGK:1,2011-11-02T17:30:00Z,27.6010,-82.7510,22.58,1111122 
COMPS,ioos:station:USF.COMPS:EGK:1,2011-11-02T17:36:00Z,27.6010,-82.7510,22.74,1111122 
COMPS,ioos:station:USF.COMPS:EGK:1,2011-11-02T17:42:00Z,27.6010,-82.7510,22.9,1111122 
COMPS,ioos:station:USF.COMPS:EGK:1,2011-11-02T17:48:00Z,27.6010,-82.7510,22.85,1111122 
COMPS,ioos:station:USF.COMPS:EGK:1,2011-11-02T17:54:00Z,27.6010,-82.7510,22.89,1111122 
COMPS,ioos:station:USF.COMPS:EGK:1,2011-11-02T18:00:00Z,27.6010,-82.7510,23.01,1111122 
COMPS,ioos:station:USF.COMPS:EGK:1,2011-11-02T18:06:00Z,27.6010,-82.7510,23.24,1111122 
COMPS,ioos:station:USF.COMPS:EGK:1,2011-11-02T18:12:00Z,27.6010,-82.7510,23.33,1111122 